Weather History for Culdrose, United Kingdom

Change the Weather History Date:

Sunday, February 10, 2013

  Actual Average Record
Temperature  
Mean Temperature 42 °F -  
Max Temperature 47 °F 47 °F 53 °F (2001)
Min Temperature 38 °F 39 °F 32 °F (2006)
Degree Days  
Heating Degree Days 22    
Moisture  
Dew Point 42 °F    
Average Humidity 90    
Maximum Humidity 100    
Minimum Humidity 74    
Precipitation  
Precipitation 0.12 in - - ()
Sea Level Pressure  
Sea Level Pressure 29.41 in    
Wind  
Wind Speed 11 mph ()    
Max Wind Speed 20 mph    
Max Gust Speed 33 mph    
Visibility 5.6 miles    
Events Rain    
Averages and records for this station are not official NWS values.
T = Trace of Precipitation, MM = Missing Value Source: Averaged Metar Reports

Daily Weather History Graph

Daily Weather History Graph

Search for Another Location

Airport:

Trip Planner

Search our weather history database for the weather conditions in past years. The results will help you decide how hot, cold, wet, or windy it might be!

Date:

Astronomy

Feb. 10, 2013 Rise Set
Actual Time 7:40 AM GMT 5:30 PM GMT
Civil Twilight 7:06 AM GMT 6:04 PM GMT
Nautical Twilight 6:28 AM GMT 6:42 PM GMT
Astronomical Twilight 5:50 AM GMT 7:20 PM GMT
Moon 7:15 AM GMT (2/10) 6:14 PM GMT (2/10)
Length of Visible Light 10h 58m
Length of Day
9h 50m
New Moon, 0% of the Moon is Illuminated
Feb 10
New Moon
Feb 17
First Quarter
Feb 25
Full
Mar 4
Last Quarter
Mar 11
New

Hourly Weather History & Observations

Time (GMT) Temp. Windchill Dew Point Humidity Pressure Visibility Wind Dir Wind Speed Gust Speed Precip Events Conditions
12:50 AM 48.2 °F - 48.2 °F 100% 29.77 in 2.5 mi SSW 11.5 mph - N/A Rain Light Rain
1:50 AM 48.2 °F - 48.2 °F 100% 29.71 in 2.5 mi SSW 11.5 mph - N/A   Light Drizzle
2:50 AM 48 °F - 48 °F 98% 29.65 in 2 mi SSW 11.5 mph - - Rain Light Rain
2:50 AM 48.2 °F - 48.2 °F 100% 29.62 in 2.5 mi SSW 11.5 mph 23.0 mph N/A Rain Light Rain
3:50 AM 48.2 °F - 48.2 °F 100% 29.56 in 2.5 mi SW 13.8 mph 27.6 mph N/A Rain Light Rain
4:50 AM 48.2 °F - 48.2 °F 100% 29.50 in 0.9 mi SW 15.0 mph - N/A Rain Rain
5:50 AM 48 °F - 47 °F 96% 29.48 in 12 mi WNW 6.9 mph - - Rain Light Rain
5:50 AM 48.2 °F - 48.2 °F 100% 29.47 in 6.2 mi WNW 6.9 mph - N/A   Mostly Cloudy
6:50 AM 46.4 °F 42.9 °F 46.4 °F 100% 29.44 in 6.2 mi West 6.9 mph - N/A   Overcast
7:50 AM 46.4 °F 41.9 °F 46.4 °F 100% 29.42 in 3.1 mi West 9.2 mph - N/A   Overcast
8:50 AM 44 °F - 42 °F 90% 29.42 in 3 mi NW 19.6 mph - - Rain Light Rain
8:50 AM 44.6 °F 36.6 °F 42.8 °F 93% 29.42 in 3.1 mi NW 19.6 mph 31.1 mph N/A Rain Light Rain
9:50 AM 44.6 °F 39.2 °F 42.8 °F 93% 29.39 in 6.2 mi NW 10.4 mph - N/A   Haze
10:50 AM 44.6 °F 38.8 °F 42.8 °F 93% 29.36 in 3.1 mi West 11.5 mph - N/A Rain Light Rain
11:50 AM 45 °F - 43 °F 88% 29.37 in 6 mi WNW 8.1 mph - - Rain Light Rain
11:50 AM 44.6 °F 40.2 °F 42.8 °F 93% 29.36 in 6.2 mi WNW 8.1 mph - N/A   Overcast
12:50 PM 44.6 °F 37.4 °F 42.8 °F 93% 29.33 in 2.5 mi NW 16.1 mph 27.6 mph N/A Rain Rain
1:50 PM 44.6 °F 37.4 °F 41.0 °F 87% 29.33 in 6.2 mi NNW 16.1 mph 27.6 mph N/A Rain Light Rain
2:50 PM 45 °F - 40 °F 78% 29.34 in 6 mi NW 18.4 mph - - Rain Light Rain
2:50 PM 44.6 °F 36.9 °F 41.0 °F 87% 29.33 in 6.2 mi NW 18.4 mph 33.4 mph N/A   Mostly Cloudy
3:50 PM 44.6 °F 36.9 °F 39.2 °F 81% 29.33 in 6.2 mi NW 18.4 mph 33.4 mph N/A Rain Light Rain Showers
4:50 PM 42.8 °F 35.4 °F 35.6 °F 76% 29.33 in 6.2 mi NW 15.0 mph - N/A   Mostly Cloudy
5:50 PM 42 °F - 36 °F 74% 29.33 in 12 mi NW 11.5 mph - -   Partly Cloudy
5:50 PM 42.8 °F 36.6 °F 37.4 °F 81% 29.30 in 6.2 mi NW 11.5 mph - N/A   Mostly Cloudy
6:50 PM 41.0 °F 36.4 °F 37.4 °F 87% 29.33 in 6.2 mi NW 6.9 mph - N/A   Mostly Cloudy
7:50 PM 41.0 °F 34.3 °F 37.4 °F 87% 29.30 in 6.2 mi NW 11.5 mph - N/A   Partly Cloudy
8:50 PM 40 °F - 35 °F 76% 29.34 in 12 mi WNW 9.2 mph - -   Partly Cloudy
8:50 PM 39.2 °F 32.0 °F 35.6 °F 87% 29.33 in 6.2 mi WNW 11.5 mph - N/A   Unknown
9:50 PM 39.2 °F 33.0 °F 35.6 °F 87% 29.33 in 6.2 mi WNW 9.2 mph - N/A   Partly Cloudy
10:50 PM 39.2 °F 34.2 °F 35.6 °F 87% 29.33 in 6.2 mi WNW 6.9 mph - N/A   Partly Cloudy
11:50 PM 38 °F - 36 °F 87% 29.34 in 12 mi WNW 4.6 mph - -   Partly Cloudy
11:50 PM 39.2 °F 35.9 °F 35.6 °F 87% 29.33 in 6.2 mi WNW 4.6 mph - N/A   Partly Cloudy